• In Uzbekistan
  • List of Countries
  • For 7 days
  • Water Temperature
  • Satellite Maps
  • Weather Map
  • Weather Widgets
  • user-avatar
    Login

    Hourly Weather Lesnoy

    Today, 16 July, Monday

    Time Temperature Precipitation Wind Pressure Humidity
    00:00 +21°C° 0.8 mm 2 mps 742 mmHg 85%
    01:00 +21°C° 0.2 mm 2 mps 742 mmHg 86%
    02:00 +21°C° 0.2 mm 2 mps 742 mmHg 86%
    03:00 +20°C° 0 mm 2 mps 742 mmHg 89%
    04:00 +21°C° 0.2 mm 3 mps 742 mmHg 88%
    05:00 +21°C° 0.2 mm 3 mps 742 mmHg 88%
    06:00 +21°C° 0.2 mm 3 mps 741 mmHg 87%
    07:00 +23°C° 0.7 mm 4 mps 741 mmHg 83%
    08:00 +26°C° 0.7 mm 4 mps 741 mmHg 78%
    09:00 +27°C° 0.7 mm 5 mps 741 mmHg 74%
    10:00 +28°C° 1.4 mm 5 mps 741 mmHg 69%
    11:00 +29°C° 1.4 mm 5 mps 741 mmHg 65%
    12:00 +30°C° 1.4 mm 5 mps 741 mmHg 61%
    13:00 +30°C° 1.1 mm 5 mps 740 mmHg 61%
    14:00 +30°C° 1.1 mm 5 mps 740 mmHg 62%
    15:00 +30°C° 1.1 mm 4 mps 740 mmHg 62%
    16:00 +30°C° 0.8 mm 4 mps 740 mmHg 66%
    17:00 +29°C° 0.8 mm 3 mps 740 mmHg 69%
    18:00 +29°C° 0.8 mm 3 mps 740 mmHg 73%
    19:00 +27°C° 0.4 mm 3 mps 740 mmHg 77%
    20:00 +26°C° 0.4 mm 3 mps 740 mmHg 81%
    21:00 +23°C° 0.4 mm 4 mps 740 mmHg 85%
    22:00 +22°C° 0.5 mm 3 mps 739 mmHg 87%
    23:00 +22°C° 0.5 mm 3 mps 739 mmHg 89%

    Tomorrow, 17 July, Tuesday

    Time Temperature Precipitation Wind Pressure Humidity
    00:00 +21°C° 0.5 mm 3 mps 739 mmHg 91%
    01:00 +21°C° 0.2 mm 3 mps 739 mmHg 92%
    02:00 +20°C° 0.2 mm 3 mps 739 mmHg 92%
    03:00 +20°C° 0.2 mm 3 mps 739 mmHg 93%
    04:00 +20°C° 0.4 mm 4 mps 739 mmHg 93%
    05:00 +20°C° 0.4 mm 4 mps 738 mmHg 93%
    06:00 +21°C° 0.4 mm 5 mps 738 mmHg 94%
    07:00 +21°C° 0.5 mm 5 mps 738 mmHg 93%
    08:00 +21°C° 0.5 mm 5 mps 738 mmHg 92%
    09:00 +21°C° 0.5 mm 6 mps 737 mmHg 91%
    10:00 +22°C° 0.3 mm 6 mps 737 mmHg 87%
    11:00 +22°C° 0.3 mm 7 mps 737 mmHg 84%
    12:00 +23°C° 0.3 mm 7 mps 737 mmHg 80%
    13:00 +23°C° 0.6 mm 7 mps 737 mmHg 83%
    14:00 +23°C° 0.6 mm 6 mps 736 mmHg 86%
    15:00 +22°C° 0.6 mm 6 mps 736 mmHg 88%
    16:00 +22°C° 0.8 mm 6 mps 736 mmHg 89%
    17:00 +22°C° 0.8 mm 6 mps 736 mmHg 89%
    18:00 +22°C° 0.8 mm 5 mps 735 mmHg 89%
    19:00 +21°C° 0.6 mm 5 mps 735 mmHg 91%
    20:00 +21°C° 0.6 mm 4 mps 735 mmHg 93%
    21:00 +20°C° 0.6 mm 4 mps 735 mmHg 95%
    22:00 +19°C° 0.1 mm 4 mps 735 mmHg 95%
    23:00 +19°C° 0.1 mm 4 mps 735 mmHg 96%

    Day after tomorrow, 18 July, Wednesday

    Time Temperature Precipitation Wind Pressure Humidity
    00:00 +18°C° 0.1 mm 3 mps 734 mmHg 96%
    01:00 +18°C° 0 mm 3 mps 734 mmHg 96%
    02:00 +18°C° 0 mm 3 mps 734 mmHg 96%
    03:00 +18°C° 0 mm 3 mps 734 mmHg 97%
    04:00 +18°C° 0.3 mm 3 mps 734 mmHg 96%
    05:00 +18°C° 0.3 mm 3 mps 734 mmHg 96%
    06:00 +19°C° 0.3 mm 3 mps 734 mmHg 96%
    07:00 +19°C° 0.5 mm 4 mps 734 mmHg 95%
    08:00 +19°C° 0.5 mm 4 mps 735 mmHg 95%
    09:00 +19°C° 0.5 mm 4 mps 735 mmHg 94%
    10:00 +20°C° 0.9 mm 5 mps 735 mmHg 92%
    11:00 +20°C° 0.9 mm 6 mps 735 mmHg 91%
    12:00 +21°C° 0.9 mm 7 mps 736 mmHg 89%
    13:00 +21°C° 1.1 mm 7 mps 736 mmHg 88%
    14:00 +21°C° 1.1 mm 7 mps 736 mmHg 88%
    15:00 +21°C° 1.1 mm 7 mps 736 mmHg 87%
    16:00 +21°C° 0.4 mm 7 mps 737 mmHg 87%
    17:00 +21°C° 0.4 mm 6 mps 737 mmHg 87%
    18:00 +21°C° 0.4 mm 6 mps 737 mmHg 86%
    19:00 +20°C° 0.3 mm 6 mps 737 mmHg 87%
    20:00 +20°C° 0.3 mm 5 mps 738 mmHg 88%
    21:00 +20°C° 0.3 mm 5 mps 738 mmHg 89%
    22:00 +19°C° 0.4 mm 5 mps 738 mmHg 89%
    23:00 +19°C° 0.4 mm 5 mps 738 mmHg 90%

    19 July, Thursday

    Time Temperature Precipitation Wind Pressure Humidity
    00:00 +19°C° 0.4 mm 5 mps 738 mmHg 90%
    01:00 +19°C° 0.2 mm 5 mps 738 mmHg 91%
    02:00 +19°C° 0.2 mm 5 mps 738 mmHg 92%
    03:00 +19°C° 0.2 mm 5 mps 738 mmHg 93%
    04:00 +19°C° 0.6 mm 5 mps 738 mmHg 94%
    05:00 +19°C° 0.6 mm 5 mps 738 mmHg 94%
    06:00 +19°C° 0.6 mm 5 mps 739 mmHg 94%
    07:00 +19°C° 0.8 mm 5 mps 739 mmHg 94%
    08:00 +20°C° 0.8 mm 5 mps 739 mmHg 93%
    09:00 +20°C° 0.8 mm 5 mps 739 mmHg 92%
    10:00 +21°C° 0.3 mm 5 mps 740 mmHg 88%
    11:00 +23°C° 0.3 mm 6 mps 740 mmHg 84%
    12:00 +24°C° 0.3 mm 6 mps 740 mmHg 80%
    13:00 +26°C° 1.1 mm 6 mps 740 mmHg 78%
    14:00 +26°C° 1.1 mm 6 mps 740 mmHg 76%
    15:00 +27°C° 1.1 mm 6 mps 740 mmHg 74%
    16:00 +27°C° 0.5 mm 5 mps 741 mmHg 76%
    17:00 +27°C° 0.5 mm 4 mps 741 mmHg 77%
    18:00 +27°C° 0.5 mm 4 mps 741 mmHg 79%
    19:00 +25°C° 0.1 mm 3 mps 741 mmHg 81%
    20:00 +24°C° 0.1 mm 3 mps 742 mmHg 84%
    21:00 +22°C° 0.1 mm 3 mps 742 mmHg 86%
    22:00 +21°C° 0.5 mm 3 mps 742 mmHg 88%
    23:00 +21°C° 0.5 mm 3 mps 742 mmHg 90%

    20 July, Friday

    Time Temperature Precipitation Wind Pressure Humidity
    00:00 +20°C° 0.5 mm 3 mps 742 mmHg 91%
    01:00 +20°C° 0.2 mm 3 mps 742 mmHg 91%
    02:00 +20°C° 0.2 mm 3 mps 742 mmHg 91%
    03:00 +20°C° 0.2 mm 3 mps 742 mmHg 92%
    04:00 +20°C° 0.6 mm 3 mps 743 mmHg 92%
    05:00 +20°C° 0.6 mm 3 mps 743 mmHg 91%
    06:00 +21°C° 0.6 mm 3 mps 743 mmHg 91%
    07:00 +22°C° 0.2 mm 3 mps 743 mmHg 88%
    08:00 +23°C° 0.2 mm 4 mps 743 mmHg 85%
    09:00 +25°C° 0.2 mm 4 mps 743 mmHg 82%
    10:00 +26°C° 0.2 mm 5 mps 743 mmHg 77%
    11:00 +28°C° 0.2 mm 5 mps 743 mmHg 71%
    12:00 +29°C° 0.2 mm 5 mps 743 mmHg 65%
    13:00 +30°C° 0.6 mm 4 mps 743 mmHg 64%
    14:00 +30°C° 0.6 mm 3 mps 743 mmHg 62%
    15:00 +31°C° 0.6 mm 3 mps 743 mmHg 60%
    16:00 +30°C° 1.1 mm 2 mps 743 mmHg 65%
    17:00 +30°C° 1.1 mm 2 mps 743 mmHg 69%
    18:00 +29°C° 1.1 mm 1 mps 743 mmHg 74%
    19:00 +28°C° 0.3 mm 1 mps 743 mmHg 76%
    20:00 +26°C° 0.3 mm 1 mps 743 mmHg 79%
    21:00 +24°C° 0.3 mm 1 mps 743 mmHg 81%
    22:00 +24°C° 0.6 mm 1 mps 743 mmHg 84%
    23:00 +23°C° 0.6 mm 2 mps 743 mmHg 86%

    21 July, Saturday

    Time Temperature Precipitation Wind Pressure Humidity
    00:00 +23°C° 0.6 mm 2 mps 743 mmHg 88%
    01:00 +21°C° 0.3 mm 3 mps 743 mmHg 89%
    02:00 +21°C° 0.3 mm 3 mps 743 mmHg 91%
    03:00 +20°C° 0.3 mm 4 mps 743 mmHg 92%
    04:00 +20°C° 0 mm 3 mps 743 mmHg 91%
    05:00 +20°C° 0 mm 3 mps 743 mmHg 91%
    06:00 +21°C° 0 mm 2 mps 743 mmHg 90%
    07:00 +23°C° 0 mm 2 mps 743 mmHg 85%
    08:00 +25°C° 0 mm 2 mps 743 mmHg 80%
    09:00 +26°C° 0 mm 2 mps 743 mmHg 75%
    10:00 +27°C° 0.8 mm 2 mps 743 mmHg 72%
    11:00 +28°C° 0.8 mm 3 mps 743 mmHg 68%
    12:00 +29°C° 0.8 mm 3 mps 743 mmHg 65%
    13:00 +30°C° 0.2 mm 3 mps 743 mmHg 62%
    14:00 +30°C° 0.2 mm 3 mps 743 mmHg 60%
    15:00 +31°C° 0.2 mm 3 mps 743 mmHg 57%
    16:00 +30°C° 0.1 mm 3 mps 743 mmHg 61%
    17:00 +30°C° 0.1 mm 3 mps 743 mmHg 65%
    18:00 +30°C° 0.1 mm 3 mps 743 mmHg 69%
    19:00 +28°C° 0.5 mm 3 mps 743 mmHg 75%
    20:00 +26°C° 0.5 mm 2 mps 743 mmHg 80%
    21:00 +25°C° 0.5 mm 2 mps 743 mmHg 86%
    22:00 +24°C° 1.4 mm 3 mps 743 mmHg 88%
    23:00 +22°C° 1.4 mm 3 mps 743 mmHg 90%
    Show more